Regional Weather Roundup
Issued by NWS

Home | Current Version | Previous Version | Graphics & Text | Print | Product List | Glossary On
Versions: 1 2 3 4 5 6 7 8 9 10 11 12 13 14 15 16 17 18 19 20 21 22 23 24 25 26 27 28 29 30 31 32 33 34 35 36 37 38 39 40 41 42 43 44 45 46 47 48 49 50
000
ASUS45 KCYS 241110
RWRWY

WYOMING REGIONAL WEATHER ROUNDUP
NATIONAL WEATHER SERVICE CHEYENNE WY
500 AM MDT FRI APR 24 2015

NOTE:  "FAIR" INDICATES FEW OR NO CLOUDS BELOW 12,000 FEET
WITH NO SIGNIFICANT WEATHER AND/OR OBSTRUCTIONS TO VISIBILITY.

WYZ001-241200-
YELLOWSTONE NATIONAL PARK

CITY           SKY/WX    TMP DP  RH WIND       PRES   REMARKS
LK YELLOWSTONE   N/A     23  19  85 NW3       29.79F
W YELLOWSTONE  NOT AVBL

$$
WYZ002>013-054>058-071-098>099-241200-
NORTHERN WYOMING

CITY           SKY/WX    TMP DP  RH WIND       PRES   REMARKS
JACKSON        FAIR      28  27  93 N6        29.76F WCI  22
CODY           FAIR      45  28  53 SW8       29.66S
GREYBULL       FAIR      42  38  85 CALM      29.65F
WORLAND        FAIR      40  38  93 CALM      29.65F
SHERIDAN       FOG       34  32  92 CALM      29.62F VSB 3/4
BUFFALO        FAIR      43  32  65 W6        29.64F
GILLETTE       FAIR      45  40  82 S5        29.64S
HULETT         CLOUDY    46  36  66 CALM      29.65S
NEWCASTLE      FAIR      41  34  75 MISG      29.65S

$$
WYZ014>020-022>026-101>103-241200-
CENTRAL WYOMING

CITY           SKY/WX    TMP DP  RH WIND       PRES   REMARKS
BIG PINEY      FAIR      28  26  92 SE3       29.80S
PINEDALE       FAIR      23  23 100 W5        29.79F WCI  17
DUBOIS         FAIR      30  25  80 W16       29.75S WCI  19
LANDER         FAIR      41  26  55 SW3       29.70S
RIVERTON       FAIR      40  31  70 SW7       29.70F
CASPER         FAIR      44  35  70 SW13      29.69F
DOUGLAS        FAIR      39  35  86 CALM      29.68F

$$
WYZ021-027>030-104>119-241200-
SOUTHERN WYOMING

CITY           SKY/WX    TMP DP  RH WIND       PRES   REMARKS
EVANSTON       FAIR      35  29  78 S7        29.79S WCI  29
FORT BRIDGER   SUNNY     36  32  87 S10       29.82S WCI  28
ROCK SPRINGS   FAIR      36  30  79 SE8       29.79F WCI  30
DIXON          CLOUDY    36  31  82 CALM      29.84S
RAWLINS        MOCLDY    41  30  65 SW9       29.79F
SARATOGA       PTSUNNY   34  32  93 MISG      29.81F
LARAMIE        FAIR      35  27  72 SW13      29.79S WCI  26
CHEYENNE       FAIR      40  29  64 W10G23    29.74F WCI  33
TORRINGTON     FAIR      44  33  65 W7        29.67F
PINE BLUFFS    FAIR      36  34  93 W5        29.73F WCI  32

$$


USA.gov is the U.S. government's official web portal to all federal, state and local government web resources and services.